Date String (YYYY-MM-DD hh:mm:ss) UTC,Instrument flags,Ambient pressure (hPa),Sample flow (lpm),Bypass flow (lpm),Sample temperature (°C),Ambient temperature (°C),ASC tube jacket temperature (°C),LED temperature (°C),Box temperature (°C),Sample RH (%),Span deviation,Mass concentration (μg/m³),Mass concentration (μg/m³),Mass concentration (μg/m³)
DateTimeUTC,F1_M11,P_M11,Q1_M11,Q2_M11,T1_M11,T2_M11,T3_M11,T4_M11,T5_M11,U1_M11,ZSPAN_M11,X2_M11,X0_M11,X1_M11
2022-07-03 16:00:00,,0825.4,4.99,0.00,29.4,27.6,00.0,38.2,31.2,27.6,0000.0,0005.44,0015.49,0004.49
2022-07-03 16:01:00,,0825.4,4.99,0.00,29.4,27.7,00.0,38.2,31.3,27.7,0000.0,0005.43,0015.43,0004.51
2022-07-03 16:02:00,,0825.4,5.00,0.00,29.4,27.9,00.0,38.2,31.3,27.3,0000.0,0005.45,0014.69,0004.54
2022-07-03 16:03:00,,0825.4,5.01,0.00,29.4,28.0,00.0,38.2,31.4,27.9,0000.0,0005.47,0013.32,0004.57
2022-07-03 16:04:00,,0825.4,4.99,0.00,29.5,28.2,00.0,38.2,31.4,28.1,0000.0,0005.44,0012.56,0004.62
2022-07-03 16:05:00,,0825.4,5.00,0.00,29.5,28.3,00.0,38.2,31.5,28.1,0000.0,0005.45,0012.75,0004.65
2022-07-03 16:06:00,,0825.3,5.01,0.00,29.5,28.4,00.0,38.2,31.5,28.2,0000.0,0005.50,0012.71,0004.71
2022-07-03 16:07:00,,0825.4,5.01,0.00,29.5,28.0,00.0,38.2,31.5,28.3,0000.0,0005.53,0012.21,0004.74
2022-07-03 16:08:00,,0825.3,5.01,0.00,29.5,27.4,00.0,38.2,31.3,28.0,0000.0,0005.59,0011.49,0004.79
2022-07-03 16:09:00,,0825.3,4.99,0.00,29.5,27.2,00.0,38.1,31.3,28.0,0000.0,0005.68,0011.65,0004.84
2022-07-03 16:10:00,,0825.4,4.99,0.00,29.4,27.2,00.0,38.1,31.2,27.9,0000.0,0005.72,0011.90,0004.89
2022-07-03 16:11:00,,0825.3,5.00,0.00,29.4,27.3,00.0,38.1,31.2,28.1,0000.0,0005.76,0011.65,0004.93
2022-07-03 16:12:00,,0825.3,4.99,0.00,29.4,27.5,00.0,38.1,31.2,28.2,0000.0,0005.78,0011.64,0004.95
2022-07-03 16:13:00,,0825.3,5.00,0.00,29.4,27.7,00.0,38.1,31.3,28.2,0000.0,0005.75,0011.56,0004.94
2022-07-03 16:14:00,,0825.3,5.01,0.00,29.4,27.9,00.0,38.1,31.3,27.9,0000.0,0005.75,0011.63,0004.94
2022-07-03 16:15:00,,0825.3,5.00,0.00,29.4,28.0,00.0,38.2,31.4,28.1,0000.0,0005.78,0011.77,0004.94
2022-07-03 16:16:00,,0825.3,5.00,0.00,29.4,28.2,00.0,38.2,31.4,27.3,0000.0,0005.80,0011.40,0004.93
2022-07-03 16:17:00,,0825.3,5.01,0.00,29.5,28.3,00.0,38.2,31.4,26.8,0000.0,0005.77,0011.31,0004.90
2022-07-03 16:18:00,,0825.3,5.01,0.00,29.5,28.1,00.0,38.1,31.4,26.7,0000.0,0005.77,0011.48,0004.88
2022-07-03 16:19:00,,0825.4,5.00,0.00,29.5,27.4,00.0,38.1,31.3,27.6,0000.0,0005.77,0011.71,0004.84
2022-07-03 16:20:00,,0825.3,4.99,0.00,29.4,27.1,00.0,38.1,31.2,27.2,0000.0,0005.72,0012.06,0004.79
2022-07-03 16:21:00,,0825.3,4.99,0.00,29.4,27.2,00.0,38.1,31.2,27.2,0000.0,0005.68,0011.83,0004.76
2022-07-03 16:22:00,,0825.3,5.00,0.00,29.3,27.3,00.0,38.1,31.1,27.1,0000.0,0005.61,0011.37,0004.73
2022-07-03 16:23:00,,0825.3,5.00,0.00,29.3,27.4,00.0,38.1,31.2,26.8,0000.0,0005.60,0011.08,0004.70
2022-07-03 16:24:00,,0825.3,5.00,0.00,29.3,27.6,00.0,38.1,31.2,26.7,0000.0,0005.55,0010.78,0004.67
2022-07-03 16:25:00,,0825.3,5.00,0.00,29.3,27.8,00.0,38.1,31.2,26.7,0000.0,0005.49,0010.57,0004.64
2022-07-03 16:26:00,,0825.3,5.01,0.00,29.4,28.0,00.0,38.1,31.3,26.4,0000.0,0005.43,0010.43,0004.60
2022-07-03 16:27:00,,0825.4,5.00,0.00,29.4,28.1,00.0,38.1,31.3,26.4,0000.0,0005.37,0010.23,0004.57
2022-07-03 16:28:00,,0825.3,5.00,0.00,29.4,28.3,00.0,38.1,31.4,26.8,0000.0,0005.37,0010.38,0004.56
2022-07-03 16:29:00,,0825.3,5.00,0.00,29.5,28.4,00.0,38.1,31.4,26.8,0000.0,0005.35,0010.75,0004.54
2022-07-03 16:30:00,,0825.3,5.00,0.00,29.5,27.9,00.0,38.1,31.4,26.6,0000.0,0005.31,0011.40,0004.54
2022-07-03 16:31:00,,0825.4,5.00,0.00,29.4,27.3,00.0,38.1,31.3,26.6,0000.0,0005.36,0012.51,0004.55
2022-07-03 16:32:00,,0825.3,5.00,0.00,29.4,27.2,00.0,38.0,31.2,26.6,0000.0,0005.38,0012.68,0004.55
2022-07-03 16:33:00,,0825.3,5.00,0.00,29.3,27.2,00.0,38.1,31.1,26.9,0000.0,0005.40,0012.80,0004.53
2022-07-03 16:34:00,,0825.3,4.99,0.00,29.3,27.3,00.0,38.1,31.1,27.1,0000.0,0005.40,0013.10,0004.52
2022-07-03 16:35:00,,0825.4,4.99,0.00,29.3,27.5,00.0,38.1,31.2,27.2,0000.0,0005.44,0013.94,0004.52
2022-07-03 16:36:00,,0825.3,5.00,0.00,29.3,27.7,00.0,38.1,31.2,27.0,0000.0,0005.44,0014.20,0004.52
2022-07-03 16:37:00,,0825.3,5.00,0.00,29.3,27.8,00.0,38.1,31.3,27.1,0000.0,0005.43,0014.20,0004.53
2022-07-03 16:38:00,,0825.3,5.00,0.00,29.4,28.0,00.0,38.1,31.3,27.4,0000.0,0005.43,0014.49,0004.53
2022-07-03 16:39:00,,0825.3,4.99,0.00,29.4,28.2,00.0,38.1,31.4,27.6,0000.0,0005.42,0014.17,0004.53
2022-07-03 16:40:00,,0825.3,5.00,0.00,29.4,28.3,00.0,38.1,31.4,27.3,0000.0,0005.44,0013.79,0004.52
2022-07-03 16:41:00,,0825.3,5.01,0.00,29.4,28.0,00.0,38.1,31.4,27.3,0000.0,0005.43,0012.85,0004.52
2022-07-03 16:42:00,,0825.4,4.99,0.00,29.4,27.3,00.0,38.0,31.2,27.0,0000.0,0005.35,0011.32,0004.50
2022-07-03 16:43:00,,0825.3,5.00,0.00,29.3,27.0,00.0,38.0,31.2,27.1,0000.0,0005.30,0011.63,0004.49
2022-07-03 16:44:00,,0825.3,5.01,0.00,29.3,27.1,00.0,38.0,31.1,27.3,0000.0,0005.28,0011.97,0004.49
2022-07-03 16:45:00,,0825.4,5.01,0.00,29.3,27.2,00.0,38.0,31.1,26.8,0000.0,0005.24,0012.76,0004.48
2022-07-03 16:46:00,,0825.3,5.01,0.00,29.2,27.4,00.0,38.0,31.1,26.7,0000.0,0005.20,0012.25,0004.47
2022-07-03 16:47:00,,0825.4,4.99,0.00,29.2,27.6,00.0,38.0,31.1,26.4,0000.0,0005.20,0012.10,0004.45
2022-07-03 16:48:00,,0825.3,5.00,0.00,29.3,27.7,00.0,38.0,31.2,26.6,0000.0,0005.19,0012.18,0004.43
2022-07-03 16:49:00,,0825.3,5.00,0.00,29.3,27.9,00.0,38.0,31.2,26.5,0000.0,0005.19,0012.80,0004.42
2022-07-03 16:50:00,,0825.3,5.01,0.00,29.3,28.1,00.0,38.0,31.3,26.7,0000.0,0005.20,0013.00,0004.41
2022-07-03 16:51:00,,0825.3,5.01,0.00,29.3,28.2,00.0,38.0,31.3,26.6,0000.0,0005.15,0012.98,0004.39
2022-07-03 16:52:00,,0825.4,5.01,0.00,29.4,28.3,00.0,38.1,31.4,26.9,0000.0,0005.12,0012.94,0004.37
2022-07-03 16:53:00,,0825.4,5.01,0.00,29.4,27.7,00.0,38.0,31.3,27.2,0000.0,0005.10,0012.99,0004.37
2022-07-03 16:54:00,,0825.3,4.99,0.00,29.3,27.1,00.0,38.0,31.2,27.6,0000.0,0005.08,0012.50,0004.37
2022-07-03 16:55:00,,0825.3,4.99,0.00,29.3,27.0,00.0,38.0,31.1,27.1,0000.0,0005.06,0011.99,0004.37
2022-07-03 16:56:00,,0825.4,5.00,0.00,29.2,27.1,00.0,38.0,31.0,27.1,0000.0,0005.07,0011.04,0004.37
2022-07-03 16:57:00,,0825.4,5.00,0.00,29.2,27.2,00.0,38.0,31.0,27.4,0000.0,0005.08,0010.70,0004.38
2022-07-03 16:58:00,,0825.4,5.00,0.00,29.2,27.4,00.0,38.0,31.1,27.6,0000.0,0005.09,0010.90,0004.38
2022-07-03 16:59:00,,0825.4,5.00,0.00,29.2,27.6,00.0,38.0,31.1,27.5,0000.0,0005.10,0011.37,0004.39
